This is the latest recevied weather packets stored in our database for station/object N3OZD-10. If no packets are shown the sender has not sent any weather packets the latest 10 day(s).
| Time | Temp. | Humidity | Pressure | Rain* | Wind** | Luminosity | Snow |
|---|---|---|---|---|---|---|---|
| 1777489056 | 14.44° C | 69% | 1011.1 hPa | 0 mm | - | - | - |
| 1777488456 | 14.44° C | 67% | 1011.4 hPa | 0 mm | - | - | - |
| 1777487856 | 15° C | 68% | 1011.6 hPa | 0 mm | - | - | - |
| 1777487256 | 15° C | 71% | 1011.7 hPa | 0 mm | - | - | - |
| 1777486656 | 14.44° C | 69% | 1011.9 hPa | 0 mm | - | - | - |
| 1777486056 | 14.44° C | 70% | 1012.2 hPa | 0 mm | - | - | - |
| 1777485757 | 14.44° C | 70% | 1012.1 hPa | 0 mm | - | - | - |
| 1777485456 | 14.44° C | 70% | 1012.1 hPa | 0 mm | - | - | - |
| 1777484856 | 14.44° C | 71% | 1012.4 hPa | 0 mm | - | - | - |
| 1777484556 | 14.44° C | 72% | 1012.4 hPa | 0 mm | - | - | - |
| 1777484256 | 13.89° C | 72% | 1012.4 hPa | 0 mm | - | - | - |
| 1777483957 | 13.89° C | 72% | 1012.4 hPa | 0 mm | - | - | - |
| 1777483656 | 14.44° C | 73% | 1012.4 hPa | 0 mm | - | - | - |
| 1777483362 | 13.33° C | 76% | 1012.6 hPa | 0 mm | - | - | - |
| 1777483056 | 13.33° C | 75% | 1012.7 hPa | 0 mm | - | - | - |
| 1777482757 | 14.44° C | 73% | 1012.7 hPa | 0 mm | - | - | - |
| 1777482459 | 14.44° C | 73% | 1012.8 hPa | 0 mm | - | - | - |
| 1777482157 | 14.44° C | 74% | 1012.9 hPa | 0 mm | - | - | - |
| 1777481860 | 14.44° C | 72% | 1013 hPa | 0 mm | - | - | - |
| 1777481561 | 13.89° C | 72% | 1013.1 hPa | 0 mm | - | - | - |
| 1777481256 | 13.89° C | 72% | 1013.1 hPa | 0 mm | - | - | - |
| 1777480957 | 13.89° C | 72% | 1013.2 hPa | 0 mm | - | - | - |
| 1777480656 | 13.89° C | 73% | 1013.2 hPa | 0 mm | - | - | - |
| 1777480357 | 13.89° C | 74% | 1013.4 hPa | 0 mm | - | - | - |
| 1777480057 | 13.89° C | 74% | 1013.4 hPa | 0 mm | - | - | - |
* Rain latest hour (hover to see other rain measurements)
** Current wind speed in m/s (hover to see current wind gust speed)